Time,TemperatureF,DewpointF,PressureIn,WindDirection,WindDirectionDegrees,WindSpeedMPH,WindSpeedGustMPH,Humidity,HourlyPrecipIn,Conditions,Clouds,dailyrainin,SoftwareType,DateUTC
2013-07-01 00:00:00,67.0,67.0,29.91,SSE,159,10.0,15.0,98,0.00,,,-99.99,,2013-07-01 04:00:00,
2013-07-01 00:32:00,67.0,67.0,29.91,SSE,159,10.0,15.0,98,0.00,,,-99.99,,2013-07-01 04:32:00,
2013-07-01 00:43:00,67.0,67.0,29.91,SSE,159,10.0,15.0,98,0.00,,,-99.99,,2013-07-01 04:43:00,
2013-07-01 00:53:00,67.0,67.0,29.91,SSE,159,10.0,15.0,98,0.00,,,-99.99,,2013-07-01 04:53:00,
2013-07-01 01:00:00,66.0,66.0,29.91,South,185,7.0,-999.0,98,-99.99,,,-99.99,,2013-07-01 05:00:00,
2013-07-01 01:33:00,66.0,66.0,29.91,South,185,7.0,-999.0,98,-99.99,,,-99.99,,2013-07-01 05:33:00,
2013-07-01 01:42:00,66.0,66.0,29.91,South,185,7.0,-999.0,98,-99.99,,,-99.99,,2013-07-01 05:42:00,
2013-07-01 01:52:00,66.0,66.0,29.91,South,185,7.0,-999.0,98,-99.99,,,-99.99,,2013-07-01 05:52:00,
2013-07-01 02:34:00,66.0,66.0,29.91,South,174,9.0,13.0,98,0.00,,,-99.99,,2013-07-01 06:34:00,
2013-07-01 03:00:00,68.0,67.0,29.88,South,178,6.0,15.0,98,0.00,,,-99.99,,2013-07-01 07:00:00,
2013-07-01 03:33:00,68.0,67.0,29.88,South,178,6.0,15.0,98,0.00,,,-99.99,,2013-07-01 07:33:00,
2013-07-01 03:43:00,68.0,67.0,29.88,South,178,6.0,15.0,98,0.00,,,-99.99,,2013-07-01 07:43:00,
2013-07-01 03:53:00,68.0,67.0,29.88,South,178,6.0,15.0,98,0.00,,,-99.99,,2013-07-01 07:53:00,
2013-07-01 04:00:00,67.0,66.0,29.88,SSE,156,6.0,15.0,98,0.00,,,-99.99,,2013-07-01 08:00:00,
2013-07-01 04:33:00,67.0,66.0,29.88,SSE,156,6.0,15.0,98,0.00,,,-99.99,,2013-07-01 08:33:00,
2013-07-01 04:43:00,67.0,66.0,29.88,SSE,156,6.0,15.0,98,0.00,,,-99.99,,2013-07-01 08:43:00,
2013-07-01 04:52:00,67.0,66.0,29.88,SSE,156,6.0,15.0,98,0.00,,,-99.99,,2013-07-01 08:52:00,
2013-07-01 05:00:00,66.0,65.0,29.91,SSE,162,8.0,-999.0,98,-99.99,,,-99.99,,2013-07-01 09:00:00,
2013-07-01 05:34:00,66.0,65.0,29.91,SSE,162,8.0,-999.0,98,-99.99,,,-99.99,,2013-07-01 09:34:00,
2013-07-01 05:43:00,66.0,65.0,29.91,SSE,162,8.0,-999.0,98,-99.99,,,-99.99,,2013-07-01 09:43:00,
2013-07-01 05:53:00,66.0,65.0,29.91,SSE,162,8.0,-999.0,98,-99.99,,,-99.99,,2013-07-01 09:53:00,
2013-07-01 06:00:00,68.0,67.0,29.91,SSE,166,10.0,14.0,98,0.00,,,-99.99,,2013-07-01 10:00:00,
2013-07-01 06:33:00,68.0,67.0,29.91,SSE,166,10.0,14.0,98,0.00,,,-99.99,,2013-07-01 10:33:00,
2013-07-01 06:43:00,68.0,67.0,29.91,SSE,166,10.0,14.0,98,0.00,,,-99.99,,2013-07-01 10:43:00,
2013-07-01 06:52:00,68.0,67.0,29.91,SSE,166,10.0,14.0,98,0.00,,,-99.99,,2013-07-01 10:52:00,
2013-07-01 07:00:00,69.0,69.0,29.94,South,181,7.0,14.0,98,0.00,,,-99.99,,2013-07-01 11:00:00,
2013-07-01 07:33:00,69.0,69.0,29.94,South,181,7.0,14.0,98,0.00,,,-99.99,,2013-07-01 11:33:00,
2013-07-01 07:43:00,69.0,69.0,29.94,South,181,7.0,14.0,98,0.00,,,-99.99,,2013-07-01 11:43:00,
2013-07-01 07:52:00,69.0,69.0,29.94,South,181,7.0,14.0,98,0.00,,,-99.99,,2013-07-01 11:52:00,
2013-07-01 08:00:00,69.0,68.0,29.94,SSE,162,10.0,15.0,98,0.00,,,-99.99,,2013-07-01 12:00:00,
2013-07-01 08:33:00,69.0,68.0,29.94,SSE,162,10.0,15.0,98,0.00,,,-99.99,,2013-07-01 12:33:00,
2013-07-01 08:43:00,69.0,68.0,29.94,SSE,162,10.0,15.0,98,0.00,,,-99.99,,2013-07-01 12:43:00,
2013-07-01 08:53:00,69.0,68.0,29.94,SSE,162,10.0,15.0,98,0.00,,,-99.99,,2013-07-01 12:53:00,
2013-07-01 12:00:00,72.0,69.0,29.97,SSW,192,11.0,24.0,91,0.00,,,-99.99,,2013-07-01 16:00:00,
2013-07-01 12:44:00,72.0,69.0,29.97,SSW,192,11.0,24.0,91,0.00,,,-99.99,,2013-07-01 16:44:00,
2013-07-01 12:53:00,72.0,69.0,29.97,SSW,192,11.0,24.0,91,0.00,,,-99.99,,2013-07-01 16:53:00,
2013-07-01 13:00:00,72.0,69.0,29.97,SSE,167,12.0,20.0,92,0.01,,,-99.99,,2013-07-01 17:00:00,
2013-07-01 13:43:00,72.0,69.0,29.97,SSE,167,12.0,20.0,92,0.01,,,-99.99,,2013-07-01 17:43:00,
2013-07-01 13:53:00,72.0,69.0,29.97,SSE,167,12.0,20.0,92,0.01,,,-99.99,,2013-07-01 17:53:00,
2013-07-01 15:00:00,68.0,66.0,29.97,SSE,166,9.0,22.0,96,0.04,,,-99.99,,2013-07-01 19:00:00,
2013-07-01 16:00:00,70.0,69.0,29.97,SSE,160,11.0,15.0,96,0.00,,,-99.99,,2013-07-01 20:00:00,
2013-07-01 16:34:00,70.0,69.0,29.97,SSE,160,11.0,15.0,96,0.00,,,-99.99,,2013-07-01 20:34:00,
2013-07-01 16:43:00,70.0,69.0,29.97,SSE,160,11.0,15.0,96,0.00,,,-99.99,,2013-07-01 20:43:00,
2013-07-01 16:52:00,70.0,69.0,29.97,SSE,160,11.0,15.0,96,0.00,,,-99.99,,2013-07-01 20:52:00,
2013-07-01 17:00:00,69.0,67.0,29.97,SSE,154,7.0,16.0,95,0.00,,,-99.99,,2013-07-01 21:00:00,
2013-07-01 17:34:00,69.0,67.0,29.97,SSE,154,7.0,16.0,95,0.00,,,-99.99,,2013-07-01 21:34:00,
2013-07-01 17:44:00,69.0,67.0,29.97,SSE,154,7.0,16.0,95,0.00,,,-99.99,,2013-07-01 21:44:00,
2013-07-01 17:53:00,69.0,67.0,29.97,SSE,154,7.0,16.0,95,0.00,,,-99.99,,2013-07-01 21:53:00,
2013-07-01 18:00:00,74.0,72.0,29.97,South,177,11.0,14.0,96,0.00,,,-99.99,,2013-07-01 22:00:00,
2013-07-01 18:33:00,74.0,72.0,29.97,South,177,11.0,14.0,96,0.00,,,-99.99,,2013-07-01 22:33:00,
2013-07-01 18:43:00,74.0,72.0,29.97,South,177,11.0,14.0,96,0.00,,,-99.99,,2013-07-01 22:43:00,
2013-07-01 18:53:00,74.0,72.0,29.97,South,177,11.0,14.0,96,0.00,,,-99.99,,2013-07-01 22:53:00,
2013-07-01 19:00:00,71.0,69.0,30.00,SSW,198,11.0,18.0,95,0.00,,,-99.99,,2013-07-01 23:00:00,
2013-07-01 19:33:00,71.0,69.0,30.00,SSW,198,11.0,18.0,95,0.00,,,-99.99,,2013-07-01 23:33:00,
2013-07-01 19:44:00,71.0,69.0,30.00,SSW,198,11.0,18.0,95,0.00,,,-99.99,,2013-07-01 23:44:00,
2013-07-01 19:53:00,71.0,69.0,30.00,SSW,198,11.0,18.0,95,0.00,,,-99.99,,2013-07-01 23:53:00,
2013-07-01 20:00:00,69.0,67.0,30.00,SSE,162,12.0,18.0,95,0.00,,,-99.99,,2013-07-02 00:00:00,
2013-07-01 20:34:00,69.0,67.0,30.00,SSE,162,12.0,18.0,95,0.00,,,-99.99,,2013-07-02 00:34:00,
2013-07-01 20:43:00,69.0,67.0,30.00,SSE,162,12.0,18.0,95,0.00,,,-99.99,,2013-07-02 00:43:00,
2013-07-01 20:53:00,69.0,67.0,30.00,SSE,162,12.0,18.0,95,0.00,,,-99.99,,2013-07-02 00:53:00,
2013-07-01 21:00:00,66.0,65.0,30.03,SSE,168,11.0,16.0,97,0.00,,,-99.99,,2013-07-02 01:00:00,
2013-07-01 21:33:00,66.0,65.0,30.03,SSE,168,11.0,16.0,97,0.00,,,-99.99,,2013-07-02 01:33:00,
2013-07-01 21:43:00,66.0,65.0,30.03,SSE,168,11.0,16.0,97,0.00,,,-99.99,,2013-07-02 01:43:00,
2013-07-01 21:53:00,66.0,65.0,30.03,SSE,168,11.0,16.0,97,0.00,,,-99.99,,2013-07-02 01:53:00,
2013-07-01 22:00:00,68.0,67.0,30.03,South,175,12.0,15.0,98,0.00,,,-99.99,,2013-07-02 02:00:00,
2013-07-01 22:34:00,68.0,67.0,30.03,South,175,12.0,15.0,98,0.00,,,-99.99,,2013-07-02 02:34:00,
2013-07-01 22:43:00,68.0,67.0,30.03,South,175,12.0,15.0,98,0.00,,,-99.99,,2013-07-02 02:43:00,
2013-07-01 22:53:00,68.0,67.0,30.03,South,175,12.0,15.0,98,0.00,,,-99.99,,2013-07-02 02:53:00,
2013-07-01 23:00:00,68.0,67.0,30.03,South,183,7.0,15.0,97,0.00,,,-99.99,,2013-07-02 03:00:00,
2013-07-01 23:43:00,68.0,67.0,30.03,South,183,7.0,15.0,97,0.00,,,-99.99,,2013-07-02 03:43:00,
2013-07-01 23:53:00,68.0,67.0,30.03,South,183,7.0,15.0,97,0.00,,,-99.99,,2013-07-02 03:53:00,